Time,TemperatureF,DewpointF,PressureIn,WindDirection,WindDirectionDegrees,WindSpeedMPH,WindSpeedGustMPH,Humidity,HourlyPrecipIn,Conditions,Clouds,dailyrainin,SoftwareType,DateUTC
2013-03-14 00:00:00,10.5,4.4,30.12,East,91,1.0,1.0,76,0.00,,,0.00,Wunderground v.1.15,2013-03-14 08:00:00,
2013-03-14 00:10:00,12.4,6.0,30.12,NNW,334,3.0,3.0,75,0.00,,,0.00,Wunderground v.1.15,2013-03-14 08:10:00,
2013-03-14 00:20:00,13.6,7.1,30.12,North,354,2.0,2.0,75,0.00,,,0.00,Wunderground v.1.15,2013-03-14 08:20:00,
2013-03-14 00:30:00,17.8,10.0,30.13,ENE,70,3.0,3.0,71,0.00,,,0.00,Wunderground v.1.15,2013-03-14 08:30:00,
2013-03-14 00:40:00,16.1,9.0,30.13,NE,44,4.0,4.0,73,0.00,,,0.00,Wunderground v.1.15,2013-03-14 08:40:00,
2013-03-14 00:45:00,16.2,9.1,30.13,North,9,3.0,10.0,73,0.00,,,0.00,Wunderground v.1.15,2013-03-14 08:45:00,
2013-03-14 00:55:00,16.9,9.7,30.13,North,358,3.0,5.0,73,0.00,,,0.00,Wunderground v.1.15,2013-03-14 08:55:00,
2013-03-14 01:05:00,15.6,8.5,30.13,North,358,2.0,2.0,73,0.00,,,0.00,Wunderground v.1.15,2013-03-14 09:05:00,
2013-03-14 01:10:00,14.9,7.8,30.13,North,358,2.0,2.0,73,0.00,,,0.00,Wunderground v.1.15,2013-03-14 09:10:00,
2013-03-14 01:20:00,15.2,8.1,30.13,ESE,112,1.0,1.0,73,0.00,,,0.00,Wunderground v.1.15,2013-03-14 09:20:00,
2013-03-14 01:30:00,13.5,7.0,30.13,ESE,109,1.0,1.0,75,0.00,,,0.00,Wunderground v.1.15,2013-03-14 09:30:00,
2013-03-14 01:40:00,14.6,7.5,30.13,ESE,104,5.0,5.0,73,0.00,,,0.00,Wunderground v.1.15,2013-03-14 09:40:00,
2013-03-14 01:45:00,14.6,7.5,30.13,ESE,111,6.0,7.0,73,0.00,,,0.00,Wunderground v.1.15,2013-03-14 09:45:00,
2013-03-14 01:55:00,14.8,7.7,30.13,East,80,4.0,5.0,73,0.00,,,0.00,Wunderground v.1.15,2013-03-14 09:55:00,
2013-03-14 02:15:00,19.1,8.9,30.11,SE,138,16.0,16.0,64,0.00,,,0.00,Wunderground v.1.15,2013-03-14 10:15:00,
2013-03-14 02:20:00,18.9,7.7,30.11,SE,132,17.0,17.0,61,0.00,,,0.00,Wunderground v.1.15,2013-03-14 10:20:00,
2013-03-14 02:30:00,17.8,7.7,30.11,SE,140,18.0,18.0,64,0.00,,,0.00,Wunderground v.1.15,2013-03-14 10:30:00,
2013-03-14 02:45:00,16.9,6.8,30.12,SE,125,18.0,18.0,64,0.00,,,0.00,Wunderground v.1.15,2013-03-14 10:45:00,
2013-03-14 02:50:00,16.5,6.8,30.12,SE,136,18.0,18.0,65,0.00,,,0.00,Wunderground v.1.15,2013-03-14 10:50:00,
2013-03-14 03:00:00,15.4,6.1,30.13,SE,126,17.0,19.0,66,0.00,,,0.00,Wunderground v.1.15,2013-03-14 11:00:00,
2013-03-14 03:05:00,15.4,6.1,30.13,SE,132,17.0,19.0,66,0.00,,,0.00,Wunderground v.1.15,2013-03-14 11:05:00,
2013-03-14 03:15:00,16.2,6.1,30.13,SE,136,18.0,18.0,64,0.00,,,0.00,Wunderground v.1.15,2013-03-14 11:15:00,
2013-03-14 03:25:00,15.4,5.0,30.13,SE,132,16.0,20.0,63,0.00,,,0.00,Wunderground v.1.15,2013-03-14 11:25:00,
2013-03-14 03:45:00,15.9,4.8,30.13,ESE,119,15.0,15.0,61,0.00,,,0.00,Wunderground v.1.15,2013-03-14 11:45:00,
2013-03-14 03:50:00,14.4,5.8,30.13,ESE,111,12.0,15.0,68,0.00,,,0.00,Wunderground v.1.15,2013-03-14 11:50:00,
2013-03-14 04:00:00,14.9,4.9,30.13,ESE,116,12.0,12.0,64,0.00,,,0.00,Wunderground v.1.15,2013-03-14 12:00:00,
2013-03-14 04:10:00,16.4,4.9,30.13,East,88,15.0,15.0,60,0.00,,,0.00,Wunderground v.1.15,2013-03-14 12:10:00,
2013-03-14 04:15:00,16.2,4.0,30.12,ESE,107,16.0,16.0,58,0.00,,,0.00,Wunderground v.1.15,2013-03-14 12:15:00,
2013-03-14 04:25:00,15.2,3.4,30.12,ESE,107,18.0,19.0,59,0.00,,,0.00,Wunderground v.1.15,2013-03-14 12:25:00,
2013-03-14 04:35:00,15.9,2.2,30.11,ESE,107,20.0,21.0,54,0.00,,,0.00,Wunderground v.1.15,2013-03-14 12:35:00,
2013-03-14 04:45:00,14.1,2.0,30.13,ESE,118,19.0,22.0,58,0.00,,,0.00,Wunderground v.1.15,2013-03-14 12:45:00,
2013-03-14 04:50:00,13.3,1.3,30.13,ESE,119,16.0,16.0,58,0.00,,,0.00,Wunderground v.1.15,2013-03-14 12:50:00,
2013-03-14 05:00:00,12.4,0.8,30.14,East,98,13.0,13.0,59,0.00,,,0.00,Wunderground v.1.15,2013-03-14 13:00:00,
2013-03-14 05:10:00,12.3,0.3,30.14,East,85,14.0,14.0,58,0.00,,,0.00,Wunderground v.1.15,2013-03-14 13:10:00,
2013-03-14 05:20:00,10.5,-0.3,30.15,ESE,105,11.0,11.0,61,0.00,,,0.00,Wunderground v.1.15,2013-03-14 13:20:00,
2013-03-14 05:25:00,10.2,0.1,30.15,ESE,105,10.0,11.0,63,0.00,,,0.00,Wunderground v.1.15,2013-03-14 13:25:00,
2013-03-14 05:35:00,10.7,0.6,30.16,NE,40,6.0,7.0,63,0.00,,,0.00,Wunderground v.1.15,2013-03-14 13:35:00,
2013-03-14 05:45:00,10.9,-0.3,30.16,NE,50,8.0,9.0,60,0.00,,,0.00,Wunderground v.1.15,2013-03-14 13:45:00,
2013-03-14 05:50:00,11.1,-0.1,30.16,East,92,7.0,7.0,60,0.00,,,0.00,Wunderground v.1.15,2013-03-14 13:50:00,
2013-03-14 06:00:00,10.0,-0.8,30.16,East,87,6.0,6.0,61,0.00,,,0.00,Wunderground v.1.15,2013-03-14 14:00:00,
2013-03-14 06:05:00,10.5,-0.3,30.16,ENE,78,5.0,6.0,61,0.00,,,0.00,Wunderground v.1.15,2013-03-14 14:05:00,
2013-03-14 06:15:00,10.2,0.1,30.15,ENE,73,3.0,5.0,63,0.00,,,0.00,Wunderground v.1.15,2013-03-14 14:15:00,
2013-03-14 06:25:00,9.7,-1.1,30.15,East,94,4.0,12.0,61,0.00,,,0.00,Wunderground v.1.15,2013-03-14 14:25:00,
2013-03-14 06:35:00,8.6,-1.1,30.15,ESE,118,8.0,8.0,64,0.00,,,0.00,Wunderground v.1.15,2013-03-14 14:35:00,
2013-03-14 06:45:00,8.8,-2.6,30.15,ESE,109,10.0,12.0,59,0.00,,,0.00,Wunderground v.1.15,2013-03-14 14:45:00,
2013-03-14 06:55:00,8.3,-3.1,30.15,ESE,102,12.0,12.0,59,0.00,,,0.00,Wunderground v.1.15,2013-03-14 14:55:00,
2013-03-14 07:05:00,7.4,-3.3,30.15,ESE,116,11.0,14.0,61,0.00,,,0.00,Wunderground v.1.15,2013-03-14 15:05:00,
2013-03-14 07:10:00,8.6,-3.9,30.15,ESE,119,13.0,16.0,56,0.00,,,0.00,Wunderground v.1.15,2013-03-14 15:10:00,
2013-03-14 07:20:00,8.4,-3.4,30.15,East,95,13.0,13.0,58,0.00,,,0.00,Wunderground v.1.15,2013-03-14 15:20:00,
2013-03-14 07:30:00,8.1,-4.0,30.15,SE,132,10.0,14.0,57,0.00,,,0.00,Wunderground v.1.15,2013-03-14 15:30:00,
2013-03-14 07:35:00,7.0,-4.0,30.15,ESE,112,10.0,14.0,60,0.00,,,0.00,Wunderground v.1.15,2013-03-14 15:35:00,
2013-03-14 07:40:00,7.7,-3.7,30.15,ESE,102,10.0,12.0,59,0.00,,,0.00,Wunderground v.1.15,2013-03-14 15:40:00,
2013-03-14 07:50:00,6.3,-5.3,30.14,East,100,15.0,15.0,58,0.00,,,0.00,Wunderground v.1.15,2013-03-14 15:50:00,
2013-03-14 08:00:00,6.3,-5.3,30.14,ESE,112,13.0,13.0,58,0.00,,,0.00,Wunderground v.1.15,2013-03-14 16:00:00,
2013-03-14 08:10:00,7.4,-4.7,30.14,ESE,116,14.0,21.0,57,0.00,,,0.00,Wunderground v.1.15,2013-03-14 16:10:00,
2013-03-14 08:20:00,7.9,-4.9,30.13,ESE,118,18.0,18.0,55,0.00,,,0.00,Wunderground v.1.15,2013-03-14 16:20:00,
2013-03-14 08:25:00,8.3,-5.3,30.13,ESE,112,18.0,18.0,53,0.00,,,0.00,Wunderground v.1.15,2013-03-14 16:25:00,
2013-03-14 08:30:00,8.8,-6.1,30.13,ESE,118,18.0,24.0,50,0.00,,,0.00,Wunderground v.1.15,2013-03-14 16:30:00,
2013-03-14 08:40:00,8.3,-5.0,30.13,SE,135,19.0,25.0,54,0.00,,,0.00,Wunderground v.1.15,2013-03-14 16:40:00,
2013-03-14 08:50:00,8.1,-6.3,30.15,SE,133,19.0,19.0,51,0.00,,,0.00,Wunderground v.1.15,2013-03-14 16:50:00,
2013-03-14 09:00:00,7.6,-5.2,30.15,SE,129,18.0,18.0,55,0.00,,,0.00,Wunderground v.1.15,2013-03-14 17:00:00,
2013-03-14 09:05:00,8.1,-6.3,30.15,SE,125,18.0,21.0,51,0.00,,,0.00,Wunderground v.1.15,2013-03-14 17:05:00,
2013-03-14 09:10:00,8.1,-6.7,30.15,ESE,122,19.0,21.0,50,0.00,,,0.00,Wunderground v.1.15,2013-03-14 17:10:00,
2013-03-14 09:20:00,7.9,-6.9,30.14,SE,128,20.0,21.0,50,0.00,,,0.00,Wunderground v.1.15,2013-03-14 17:20:00,
2013-03-14 09:30:00,7.7,-6.7,30.15,SE,132,22.0,22.0,51,0.00,,,0.00,Wunderground v.1.15,2013-03-14 17:30:00,
2013-03-14 09:40:00,7.0,-5.8,30.15,SE,143,17.0,19.0,55,0.00,,,0.00,Wunderground v.1.15,2013-03-14 17:40:00,
2013-03-14 09:50:00,7.0,-5.0,30.14,SE,143,16.0,18.0,57,0.00,,,0.00,Wunderground v.1.15,2013-03-14 17:50:00,
2013-03-14 10:00:00,6.9,-4.8,30.13,SE,139,17.0,17.0,58,0.00,,,0.00,Wunderground v.1.15,2013-03-14 18:00:00,
2013-03-14 10:10:00,7.6,-4.9,30.13,SE,139,18.0,20.0,56,0.00,,,0.00,Wunderground v.1.15,2013-03-14 18:10:00,
2013-03-14 10:20:00,7.4,-4.3,30.11,SE,143,22.0,22.0,58,0.00,,,0.00,Wunderground v.1.15,2013-03-14 18:20:00,
2013-03-14 10:30:00,7.9,-5.7,30.11,SE,129,19.0,19.0,53,0.00,,,0.00,Wunderground v.1.15,2013-03-14 18:30:00,
2013-03-14 10:40:00,6.9,-4.4,30.11,SSE,149,13.0,13.0,59,0.00,,,0.00,Wunderground v.1.15,2013-03-14 18:40:00,
2013-03-14 10:45:00,6.5,-4.1,30.10,SSE,153,10.0,13.0,61,0.00,,,0.00,Wunderground v.1.15,2013-03-14 18:45:00,
2013-03-14 10:55:00,7.7,-4.4,30.10,East,95,8.0,11.0,57,0.00,,,0.00,Wunderground v.1.15,2013-03-14 18:55:00,
2013-03-14 11:00:00,7.0,-4.3,30.09,East,92,7.0,7.0,59,0.00,,,0.00,Wunderground v.1.15,2013-03-14 19:00:00,
2013-03-14 11:10:00,7.7,-4.4,30.09,East,101,5.0,11.0,57,0.00,,,0.00,Wunderground v.1.15,2013-03-14 19:10:00,
2013-03-14 11:20:00,7.7,-5.9,30.08,East,94,10.0,11.0,53,0.00,,,0.00,Wunderground v.1.15,2013-03-14 19:20:00,
2013-03-14 11:30:00,7.9,-4.2,30.07,ESE,107,8.0,8.0,57,0.00,,,0.00,Wunderground v.1.15,2013-03-14 19:30:00,
2013-03-14 11:40:00,8.8,-4.5,30.07,East,92,7.0,7.0,54,0.00,,,0.00,Wunderground v.1.15,2013-03-14 19:40:00,
2013-03-14 11:50:00,9.0,-3.5,30.07,ENE,74,7.0,7.0,56,0.00,,,0.00,Wunderground v.1.15,2013-03-14 19:50:00,
2013-03-14 12:00:00,9.5,-4.6,30.06,East,83,8.0,9.0,52,0.00,,,0.00,Wunderground v.1.15,2013-03-14 20:00:00,
2013-03-14 12:10:00,9.5,-3.8,30.06,ESE,107,9.0,9.0,54,0.00,,,0.00,Wunderground v.1.15,2013-03-14 20:10:00,
2013-03-14 12:20:00,9.7,-4.8,30.07,ESE,105,8.0,16.0,51,0.00,,,0.00,Wunderground v.1.15,2013-03-14 20:20:00,
2013-03-14 12:30:00,9.7,-3.3,30.06,East,98,10.0,10.0,55,0.00,,,0.00,Wunderground v.1.15,2013-03-14 20:30:00,
2013-03-14 12:40:00,10.7,-1.6,30.06,SE,131,12.0,13.0,57,0.00,,,0.00,Wunderground v.1.15,2013-03-14 20:40:00,
2013-03-14 12:45:00,11.2,-1.8,30.06,ESE,121,13.0,13.0,55,0.00,,,0.00,Wunderground v.1.15,2013-03-14 20:45:00,
2013-03-14 12:55:00,11.4,-4.5,30.06,ESE,109,17.0,17.0,48,0.00,,,0.00,Wunderground v.1.15,2013-03-14 20:55:00,
2013-03-14 13:05:00,10.9,-1.4,30.04,ESE,112,17.0,18.0,57,0.00,,,0.00,Wunderground v.1.15,2013-03-14 21:05:00,
2013-03-14 13:15:00,10.7,-2.3,30.04,East,101,16.0,22.0,55,0.00,,,0.00,Wunderground v.1.15,2013-03-14 21:15:00,
2013-03-14 13:25:00,10.9,-1.4,30.04,ESE,104,16.0,17.0,57,0.00,,,0.00,Wunderground v.1.15,2013-03-14 21:25:00,
2013-03-14 13:35:00,10.9,-2.1,30.04,ESE,104,13.0,15.0,55,0.00,,,0.00,Wunderground v.1.15,2013-03-14 21:35:00,
2013-03-14 13:40:00,10.9,-2.1,30.04,ESE,104,13.0,14.0,55,0.00,,,0.00,Wunderground v.1.15,2013-03-14 21:40:00,
2013-03-14 13:50:00,10.4,-1.1,30.02,East,101,15.0,15.0,59,0.00,,,0.00,Wunderground v.1.15,2013-03-14 21:50:00,
2013-03-14 14:00:00,10.2,-2.8,30.02,East,94,15.0,15.0,55,0.00,,,0.00,Wunderground v.1.15,2013-03-14 22:00:00,
2013-03-14 14:10:00,10.0,-3.0,30.02,ESE,118,16.0,16.0,55,0.00,,,0.00,Wunderground v.1.15,2013-03-14 22:10:00,
2013-03-14 14:20:00,10.0,-3.0,30.01,SE,138,18.0,20.0,55,0.00,,,0.00,Wunderground v.1.15,2013-03-14 22:20:00,
2013-03-14 14:30:00,9.9,-1.9,30.00,ESE,102,15.0,18.0,58,0.00,,,0.00,Wunderground v.1.15,2013-03-14 22:30:00,
2013-03-14 14:35:00,9.7,-2.9,30.00,ESE,108,15.0,19.0,56,0.00,,,0.00,Wunderground v.1.15,2013-03-14 22:35:00,
2013-03-14 14:40:00,9.7,-1.4,30.00,East,95,15.0,15.0,60,0.00,,,0.00,Wunderground v.1.15,2013-03-14 22:40:00,
2013-03-14 14:50:00,9.5,-2.7,29.99,ESE,104,15.0,15.0,57,0.00,,,0.00,Wunderground v.1.15,2013-03-14 22:50:00,
2013-03-14 15:00:00,9.5,-3.1,29.98,East,83,15.0,15.0,56,0.00,,,0.00,Wunderground v.1.15,2013-03-14 23:00:00,
2013-03-14 15:10:00,9.2,-3.7,29.98,ESE,121,15.0,17.0,55,0.00,,,0.00,Wunderground v.1.15,2013-03-14 23:10:00,
2013-03-14 15:20:00,9.2,-3.3,29.98,SE,139,14.0,14.0,56,0.00,,,0.00,Wunderground v.1.15,2013-03-14 23:20:00,
2013-03-14 15:25:00,9.0,-2.8,29.98,ESE,119,14.0,14.0,58,0.00,,,0.00,Wunderground v.1.15,2013-03-14 23:25:00,
2013-03-14 15:35:00,9.2,-3.0,29.97,ESE,121,13.0,15.0,57,0.00,,,0.00,Wunderground v.1.15,2013-03-14 23:35:00,
2013-03-14 15:45:00,9.2,-3.0,29.94,ESE,112,16.0,18.0,57,0.00,,,0.00,Wunderground v.1.15,2013-03-14 23:45:00,
2013-03-14 15:55:00,9.0,-3.2,29.94,SE,124,17.0,25.0,57,0.00,,,0.00,Wunderground v.1.15,2013-03-14 23:55:00,
2013-03-14 16:05:00,8.6,-3.2,29.93,ESE,122,21.0,22.0,58,0.00,,,0.00,Wunderground v.1.15,2013-03-15 00:05:00,
2013-03-14 16:15:00,8.4,-2.3,29.93,ESE,122,20.0,21.0,61,0.00,,,0.00,Wunderground v.1.15,2013-03-15 00:15:00,
2013-03-14 16:25:00,8.4,-2.3,29.93,SE,125,20.0,24.0,61,0.00,,,0.00,Wunderground v.1.15,2013-03-15 00:25:00,
2013-03-14 16:35:00,8.3,-2.7,29.92,SE,125,19.0,25.0,60,0.00,,,0.00,Wunderground v.1.15,2013-03-15 00:35:00,
2013-03-14 16:45:00,8.1,-2.2,29.92,ESE,107,17.0,18.0,62,0.00,,,0.00,Wunderground v.1.15,2013-03-15 00:45:00,
2013-03-14 16:50:00,8.1,-3.3,29.92,ESE,119,17.0,21.0,59,0.00,,,0.00,Wunderground v.1.15,2013-03-15 00:50:00,
2013-03-14 17:00:00,7.9,-3.1,29.92,SE,128,18.0,24.0,60,0.00,,,0.00,Wunderground v.1.15,2013-03-15 01:00:00,
2013-03-14 17:10:00,7.9,-2.8,29.92,SE,126,19.0,19.0,61,0.00,,,0.00,Wunderground v.1.15,2013-03-15 01:10:00,
2013-03-14 17:15:00,8.1,-2.6,29.91,ESE,118,18.0,19.0,61,0.00,,,0.00,Wunderground v.1.15,2013-03-15 01:15:00,
2013-03-14 17:25:00,8.8,-1.6,29.91,ESE,114,12.0,15.0,62,0.00,,,0.00,Wunderground v.1.15,2013-03-15 01:25:00,
2013-03-14 17:35:00,8.6,-2.1,29.92,ESE,119,11.0,17.0,61,0.00,,,0.00,Wunderground v.1.15,2013-03-15 01:35:00,
2013-03-14 17:45:00,8.1,-2.2,29.90,SE,124,17.0,20.0,62,0.00,,,0.00,Wunderground v.1.15,2013-03-15 01:45:00,
2013-03-14 17:55:00,8.1,-1.6,29.90,SE,124,20.0,29.0,64,0.00,,,0.00,Wunderground v.1.15,2013-03-15 01:55:00,
2013-03-14 18:05:00,8.1,-2.2,29.89,SE,140,21.0,25.0,62,0.00,,,0.00,Wunderground v.1.15,2013-03-15 02:05:00,
2013-03-14 18:15:00,7.9,-2.4,29.88,SE,128,20.0,26.0,62,0.00,,,0.00,Wunderground v.1.15,2013-03-15 02:15:00,
2013-03-14 18:20:00,7.7,-2.0,29.88,SE,132,20.0,20.0,64,0.00,,,0.00,Wunderground v.1.15,2013-03-15 02:20:00,
2013-03-14 18:30:00,7.7,-2.0,29.88,SE,136,19.0,19.0,64,0.00,,,0.00,Wunderground v.1.15,2013-03-15 02:30:00,
2013-03-14 18:40:00,8.1,-1.9,29.88,SE,129,19.0,19.0,63,0.00,,,0.00,Wunderground v.1.15,2013-03-15 02:40:00,
2013-03-14 18:50:00,8.4,-2.7,29.88,ESE,109,21.0,21.0,60,0.00,,,0.00,Wunderground v.1.15,2013-03-15 02:50:00,
2013-03-14 18:55:00,8.3,-1.7,29.88,SE,138,21.0,21.0,63,0.00,,,0.00,Wunderground v.1.15,2013-03-15 02:55:00,
2013-03-14 19:05:00,8.4,-2.0,29.88,SE,138,17.0,24.0,62,0.00,,,0.00,Wunderground v.1.15,2013-03-15 03:05:00,
2013-03-14 19:15:00,9.0,-2.1,29.88,SE,133,18.0,21.0,60,0.00,,,0.00,Wunderground v.1.15,2013-03-15 03:15:00,
2013-03-14 19:25:00,9.0,-1.7,29.88,SE,129,12.0,17.0,61,0.00,,,0.00,Wunderground v.1.15,2013-03-15 03:25:00,
2013-03-14 19:35:00,7.9,-2.1,29.89,ESE,109,11.0,19.0,63,0.00,,,0.00,Wunderground v.1.15,2013-03-15 03:35:00,
2013-03-14 19:40:00,8.3,-2.1,29.89,ESE,121,12.0,13.0,62,0.00,,,0.00,Wunderground v.1.15,2013-03-15 03:40:00,
2013-03-14 19:50:00,8.6,-2.1,29.89,ESE,121,12.0,12.0,61,0.00,,,0.00,Wunderground v.1.15,2013-03-15 03:50:00,
2013-03-14 20:00:00,10.5,-1.8,29.89,SSE,152,13.0,13.0,57,0.00,,,0.00,Wunderground v.1.15,2013-03-15 04:00:00,
2013-03-14 20:05:00,10.7,-1.6,29.89,SE,133,12.0,13.0,57,0.00,,,0.00,Wunderground v.1.15,2013-03-15 04:05:00,
2013-03-14 20:10:00,10.2,-1.3,29.89,SE,145,11.0,12.0,59,0.00,,,0.00,Wunderground v.1.15,2013-03-15 04:10:00,
2013-03-14 20:20:00,10.0,-1.5,29.89,East,80,6.0,6.0,59,0.00,,,0.00,Wunderground v.1.15,2013-03-15 04:20:00,
2013-03-14 20:30:00,8.6,-2.1,29.89,ESE,104,6.0,6.0,61,0.00,,,0.00,Wunderground v.1.15,2013-03-15 04:30:00,
2013-03-14 20:40:00,7.9,-2.1,29.89,NE,50,4.0,7.0,63,0.00,,,0.00,Wunderground v.1.15,2013-03-15 04:40:00,
2013-03-14 20:50:00,7.9,-2.8,29.88,NE,56,7.0,7.0,61,0.00,,,0.00,Wunderground v.1.15,2013-03-15 04:50:00,
2013-03-14 20:55:00,7.7,-3.0,29.88,ENE,71,6.0,7.0,61,0.00,,,0.00,Wunderground v.1.15,2013-03-15 04:55:00,
2013-03-14 21:05:00,8.3,-2.4,29.88,East,81,6.0,7.0,61,0.00,,,0.00,Wunderground v.1.15,2013-03-15 05:05:00,
2013-03-14 21:15:00,8.6,-3.2,29.89,NE,44,6.0,7.0,58,0.00,,,0.00,Wunderground v.1.15,2013-03-15 05:15:00,
2013-03-14 21:20:00,8.6,-2.5,29.89,ENE,61,6.0,7.0,60,0.00,,,0.00,Wunderground v.1.15,2013-03-15 05:20:00,
2013-03-14 21:30:00,8.3,-3.1,29.89,NE,54,7.0,7.0,59,0.00,,,0.00,Wunderground v.1.15,2013-03-15 05:30:00,
2013-03-14 21:40:00,8.4,-3.0,29.89,ENE,71,7.0,8.0,59,0.00,,,0.00,Wunderground v.1.15,2013-03-15 05:40:00,
2013-03-14 21:45:00,7.6,-3.8,29.90,ESE,107,8.0,8.0,59,0.00,,,0.00,Wunderground v.1.15,2013-03-15 05:45:00,
2013-03-14 21:55:00,7.6,-4.1,29.90,East,91,8.0,9.0,58,0.00,,,0.00,Wunderground v.1.15,2013-03-15 05:55:00,
2013-03-14 22:05:00,7.4,-4.3,29.89,East,101,8.0,8.0,58,0.00,,,0.00,Wunderground v.1.15,2013-03-15 06:05:00,
2013-03-14 22:15:00,7.9,-4.2,29.88,East,92,9.0,11.0,57,0.00,,,0.00,Wunderground v.1.15,2013-03-15 06:15:00,
2013-03-14 22:25:00,8.8,-3.7,29.88,East,81,9.0,11.0,56,0.00,,,0.00,Wunderground v.1.15,2013-03-15 06:25:00,
2013-03-14 22:35:00,8.3,-3.8,29.88,East,92,10.0,13.0,57,0.00,,,0.00,Wunderground v.1.15,2013-03-15 06:35:00,
2013-03-14 22:45:00,8.1,-4.0,29.88,ESE,118,12.0,13.0,57,0.00,,,0.00,Wunderground v.1.15,2013-03-15 06:45:00,
2013-03-14 22:50:00,7.7,-4.4,29.88,ESE,109,11.0,12.0,57,0.00,,,0.00,Wunderground v.1.15,2013-03-15 06:50:00,
2013-03-14 22:55:00,7.6,-4.5,29.88,ESE,108,12.0,12.0,57,0.00,,,0.00,Wunderground v.1.15,2013-03-15 06:55:00,
2013-03-14 23:05:00,6.3,-5.0,29.88,ESE,114,10.0,11.0,59,0.00,,,0.00,Wunderground v.1.15,2013-03-15 07:05:00,
2013-03-14 23:10:00,6.3,-5.0,29.88,SE,125,11.0,12.0,59,0.00,,,0.00,Wunderground v.1.15,2013-03-15 07:10:00,
2013-03-14 23:20:00,6.1,-5.2,29.89,East,98,11.0,13.0,59,0.00,,,0.00,Wunderground v.1.15,2013-03-15 07:20:00,
2013-03-14 23:30:00,5.2,-5.0,29.88,East,88,7.0,7.0,62,0.00,,,0.00,Wunderground v.1.15,2013-03-15 07:30:00,
2013-03-14 23:40:00,5.2,-5.0,29.88,ENE,60,2.0,2.0,62,0.00,,,0.00,Wunderground v.1.15,2013-03-15 07:40:00,
2013-03-14 23:50:00,5.4,-4.8,29.88,ENE,61,0.0,0.0,62,0.00,,,0.00,Wunderground v.1.15,2013-03-15 07:50:00,